[[{"header":{"parameterUnit":"m.s-1","parameterCategory":2,"la1":30.2991,"la2":30.254,"lo1":-89.0895,"lo2":-89.0444,"dy":0.0017,"dx":0.0017,"nx":28,"ny":28,"refTime":"2026-02-12T03:00:00:Z","depth":"0","parameterNumber":2,"parameterNumberName":"U-component_of_CURRENTS"},"data":[0,0,0,0,0,0,0,0,0,0,0,0,0,0,0,0,0,0,0,0,0,0,0,0,0,0,0,0,0,0,0,0,0,0,0,0,0,0,0,0,0,0,0,0,0,0,0,0,0,0,0,0,0,0,0,0,0,0,-0.2319,-0.232,0,-0.238,-0.2381,-0.2382,-0.2342,-0.2341,-0.2339,-0.2337,-0.2324,-0.2325,-0.2326,0,0,0,0,0,0,0,0,0,0,0,0,0,-0.223,-0.2231,-0.2319,-0.232,-0.232,-0.238,-0.2381,-0.2382,-0.2343,-0.2341,-0.2338,-0.2337,-0.2323,-0.2325,-0.2326,0,0,0,0,0,0,0,0,0,0,0,0,0,-0.2276,-0.2232,-0.2319,-0.2309,-0.2309,-0.238,-0.2381,-0.2382,-0.2343,-0.2341,-0.2338,-0.2336,-0.2323,-0.2325,-0.2327,-0.239,0,0,-0.2332,-0.2333,0,0,0,0,0,0,0,0,-0.2274,-0.2279,-0.231,-0.231,-0.231,-0.2352,-0.2345,-0.2381,-0.2344,-0.2329,-0.2337,-0.2334,-0.2329,-0.233,-0.2347,-0.2389,-0.2388,-0.2333,-0.2334,-0.2334,-0.2335,0,0,0,0,0,0,0,-0.227,-0.2277,-0.2342,-0.2311,-0.2311,-0.2324,-0.2326,-0.2352,-0.234,-0.233,-0.2328,-0.2337,-0.2328,-0.2345,-0.2346,-0.2388,-0.2332,-0.2334,-0.2335,-0.2336,-0.2473,-0.2475,0,0,0,0,0,0,-0.2266,-0.2274,-0.234,-0.2344,-0.2287,-0.2327,-0.233,-0.234,-0.2342,-0.234,-0.2339,-0.2335,-0.2343,-0.2344,-0.2345,-0.2414,-0.2334,-0.2336,-0.2337,-0.2471,-0.2474,-0.2476,0,0,0,0,0,0,-0.2263,-0.2271,-0.2337,-0.2311,-0.232,-0.2331,-0.2343,-0.2343,-0.235,-0.235,-0.2346,-0.2344,-0.2341,-0.2343,-0.2383,-0.2413,-0.2337,-0.2339,-0.2468,-0.2472,-0.2475,-0.2555,0,0,0,0,0,0,-0.2261,-0.227,-0.2274,-0.2311,-0.2322,-0.2402,-0.2345,-0.2346,-0.2361,-0.2356,-0.2354,-0.235,-0.2339,-0.238,-0.2385,-0.2414,-0.234,-0.2464,-0.2469,-0.2474,-0.2549,-0.2561,-0.2571,0,0,0,0,0,-0.2257,-0.2284,-0.2274,-0.2282,-0.2327,-0.2405,-0.2414,-0.241,-0.2364,-0.2399,-0.2387,-0.235,-0.2412,-0.2385,-0.2389,-0.2419,-0.2462,-0.2468,-0.2473,-0.2544,-0.2559,-0.2571,0,0,0,0,0,0,-0.2244,-0.2284,-0.2273,-0.2307,-0.2359,-0.2399,-0.2424,-0.2416,-0.2436,-0.2419,-0.2392,-0.2392,-0.2434,-0.2427,-0.2397,-0.2475,-0.2428,-0.2435,-0.248,-0.2494,-0.2505,-0.2487,-0.2342,0,0,0,0,0,-0.2245,-0.2267,-0.232,-0.2344,-0.2374,-0.2395,-0.2419,-0.2429,-0.2452,-0.2456,-0.2457,-0.2456,-0.2468,-0.2478,-0.2498,-0.255,-0.25,-0.2571,-0.2582,-0.2592,-0.2583,-0.2528,-0.2531,-0.2495,-0.2495,-0.2495,0,0,-0.224,-0.2266,-0.2275,-0.2342,-0.2372,-0.2441,-0.2404,-0.2461,-0.25,-0.2454,-0.2502,-0.2499,-0.2491,-0.2546,-0.2563,-0.2539,-0.2584,-0.2599,-0.2606,-0.2592,-0.2534,-0.2536,-0.2539,-0.2499,-0.2498,-0.2498,0,0,-0.2279,-0.2276,-0.2329,-0.2381,-0.2449,-0.2471,-0.2489,-0.2549,-0.2556,-0.2617,-0.2581,-0.2601,-0.2634,-0.2638,-0.2636,-0.2725,-0.2643,-0.2728,-0.277,-0.2718,-0.2719,-0.2719,-0.2684,-0.2681,-0.2734,-0.2734,-0.2734,0,-0.2271,-0.2339,-0.2359,-0.2439,-0.2474,-0.2486,-0.2561,-0.2591,-0.2651,-0.2656,-0.2643,-0.2669,-0.2676,-0.2701,-0.2736,-0.2747,-0.2697,-0.2716,-0.2727,-0.2726,-0.2725,-0.2689,-0.2684,-0.2738,-0.2738,-0.2737,-0.2737,0,-0.2366,-0.242,-0.246,-0.2545,-0.2594,-0.2662,-0.271,-0.2748,-0.2741,-0.2754,-0.2783,-0.2796,-0.2794,-0.2815,-0.2804,-0.2811,-0.2773,-0.2742,-0.2682,-0.2732,-0.2693,-0.2686,-0.2745,-0.2743,-0.2742,-0.2741,0,0,-0.2323,-0.2495,-0.2499,-0.2552,-0.2651,-0.2694,-0.2764,-0.282,-0.2814,-0.2872,-0.2861,-0.2919,-0.2888,-0.2886,-0.2874,-0.2849,-0.2826,-0.2795,-0.279,-0.2742,-0.2704,-0.2654,-0.2641,-0.2774,-0.2772,-0.2772,-0.2688,0,-0.2382,-0.2541,-0.2603,-0.271,-0.2788,-0.2817,-0.2863,-0.2903,-0.2907,-0.2906,-0.2908,-0.2901,-0.2923,-0.2902,-0.2891,-0.2828,-0.2806,-0.2851,-0.2679,-0.2674,-0.2606,-0.2631,-0.2515,-0.2427,-0.2681,-0.2679,-0.2678,0,-0.2434,-0.2535,-0.2677,-0.2776,-0.2804,-0.2854,-0.2874,-0.2924,-0.293,-0.2926,-0.2927,-0.2902,-0.2905,-0.2886,-0.2825,-0.2841,-0.2784,-0.274,-0.2734,-0.2646,-0.261,-0.2415,-0.2403,-0.2377,-0.2667,-0.2668,-0.2669,0,-0.2381,-0.2553,-0.2654,-0.2701,-0.2836,-0.286,-0.2893,-0.2918,-0.2914,-0.2916,-0.2885,-0.2889,-0.2853,-0.2804,-0.2761,-0.2765,-0.2657,-0.2646,-0.2556,-0.2552,-0.24,-0.2385,-0.2319,-0.258,-0.258,-0.258,-0.2581,0,-0.2402,-0.2464,-0.2632,-0.2689,-0.273,-0.2828,-0.2829,-0.2859,-0.2864,-0.2836,-0.2872,-0.2837,-0.2818,-0.2767,-0.2733,-0.2631,-0.2638,-0.2557,-0.252,-0.2431,-0.242,-0.2346,-0.2372,-0.2577,-0.2578,-0.2578,-0.2579,0,-0.2319,-0.2457,-0.2552,-0.2695,-0.2719,-0.2731,-0.2769,-0.2751,-0.2791,-0.2749,-0.2742,-0.2761,-0.2716,-0.2698,-0.261,-0.2572,-0.2441,-0.2453,-0.2369,-0.2324,-0.2211,-0.2247,-0.2142,-0.208,-0.2326,-0.2324,-0.2322,0,-0.2299,-0.2359,-0.2501,-0.2517,-0.2574,-0.2609,-0.2606,-0.2683,-0.2665,-0.2699,-0.2659,-0.264,-0.2608,-0.2504,-0.2434,-0.2353,-0.2355,-0.2191,-0.2189,-0.2185,-0.2197,-0.2231,-0.219,-0.203,-0.2026,-0.2023,-0.2021,0,-0.2216,-0.2263,-0.2329,-0.2378,-0.2397,-0.2414,-0.2435,-0.2425,-0.2503,-0.2497,-0.2496,-0.2487,-0.2428,-0.2306,-0.2222,-0.2163,-0.2132,-0.2123,-0.2115,-0.196,-0.1991,-0.1919,-0.2137,-0.1993,-0.1995,-0.1998,-0.1999,-0.2,-0.2087,-0.2093,-0.2172,-0.2188,-0.2206,-0.22,-0.2171,-0.2216,-0.2208,-0.2198,-0.229,-0.2249,-0.2183,-0.2056,-0.1998,-0.1849,-0.1934,-0.1776,-0.1821,-0.1858,-0.1793,-0.1972,-0.1793,-0.1795,-0.1796,-0.1797,-0.1798,0,-0.1927,-0.1956,-0.1967,-0.1997,-0.1947,-0.2022,-0.2023,-0.1983,-0.1954,-0.1997,-0.1996,-0.1949,-0.1819,-0.1779,-0.165,-0.1565,-0.1532,-0.1532,-0.1544,-0.1514,-0.1639,-0.162,-0.1398,-0.1398,-0.1398,-0.1399,-0.1399,-0.1399,-0.1844,-0.1813,-0.1838,-0.1736,-0.1736,-0.1649,-0.163,-0.1614,-0.1623,-0.1593,-0.1601,-0.1652,-0.1632,-0.1667,-0.1518,-0.1433,-0.1405,-0.1361,-0.1408,-0.1501,-0.1528,-0.1553,-0.154,-0.1305,-0.1305,-0.1201,-0.12,-0.12]},{"header":{"parameterUnit":"m.s-1","parameterCategory":2,"la1":30.2991,"la2":30.254,"lo1":-89.0895,"lo2":-89.0444,"dy":0.0017,"dx":0.0017,"nx":28,"ny":28,"refTime":"2026-02-12T03:00:00:Z","depth":"0","parameterNumber":3,"parameterNumberName":"V-component_of_CURRENTS"},"data":[0,0,0,0,0,0,0,0,0,0,0,0,0,0,0,0,0,0,0,0,0,0,0,0,0,0,0,0,0,0,0,0,0,0,0,0,0,0,0,0,0,0,0,0,0,0,0,0,0,0,0,0,0,0,0,0,0,0,-0.0129,-0.0129,0,-0.0053,-0.0052,-0.0051,-0.0016,-0.0017,-0.0017,-0.0017,0.0104,0.0107,0.0111,0,0,0,0,0,0,0,0,0,0,0,0,0,-0.0184,-0.0184,-0.013,-0.0129,-0.0128,-0.0053,-0.0052,-0.0051,-0.0016,-0.0017,-0.0017,-0.0017,0.0103,0.0107,0.0111,0,0,0,0,0,0,0,0,0,0,0,0,0,-0.0138,-0.0184,-0.013,-0.0103,-0.01,-0.0053,-0.0052,-0.005,-0.0016,-0.0017,-0.0017,-0.0017,0.0101,0.0106,0.0112,0.0152,0,0,0.0128,0.013,0,0,0,0,0,0,0,0,-0.014,-0.0136,-0.0108,-0.0105,-0.0102,-0.0046,-0.0027,0.0019,-0.0016,-0.0046,-0.0017,-0.0018,0.0057,0.0066,0.0083,0.0158,0.0163,0.0128,0.0131,0.0133,0.0135,0,0,0,0,0,0,0,-0.0144,-0.0138,-0.0097,-0.0107,-0.0103,-0.0075,-0.0069,-0.0018,0.0009,-0.0043,-0.0041,-0.0036,0.0059,0.0078,0.0086,0.0165,0.0128,0.0133,0.0136,0.0138,0.0324,0.0326,0,0,0,0,0,0,-0.016,-0.0142,-0.01,-0.0095,-0.0125,-0.0074,-0.0067,-0.0062,0.0008,0.0017,-0.0036,-0.0035,0.0069,0.008,0.0091,0.0159,0.0133,0.0138,0.0141,0.0323,0.0325,0.0327,0,0,0,0,0,0,-0.0162,-0.0157,-0.0103,-0.0118,-0.011,-0.0073,-0.0067,-0.006,-0.0046,0.0013,0.0023,-0.0029,0.007,0.0084,0.0146,0.0163,0.0141,0.0145,0.032,0.0323,0.0326,0.0285,0,0,0,0,0,0,-0.0164,-0.0158,-0.0158,-0.0119,-0.0109,-0.0076,-0.0067,-0.0059,-0.0043,-0.0041,0.0022,0.0033,0.007,0.0138,0.0152,0.017,0.0149,0.0318,0.0322,0.0325,0.0284,0.0286,0.0288,0,0,0,0,0,-0.0166,-0.0167,-0.0159,-0.0154,-0.0112,-0.0076,-0.0068,-0.0042,-0.0042,-0.0031,0.0017,0.0031,0.017,0.0144,0.0159,0.0179,0.0316,0.0321,0.0325,0.0283,0.0286,0.0288,0,0,0,0,0,0,-0.0188,-0.0163,-0.0153,-0.0146,-0.0114,-0.0071,-0.0063,-0.0046,-0.0,0.0002,0.0052,0.0068,0.013,0.0167,0.0137,0.0248,0.0247,0.0254,0.021,0.0213,0.0215,0.0181,0.0154,0,0,0,0,0,-0.0195,-0.0193,-0.0156,-0.015,-0.0139,-0.0102,-0.0086,-0.0066,-0.0023,-0.0005,0.0045,0.0103,0.0162,0.0193,0.0252,0.0308,0.0315,0.0336,0.0337,0.0338,0.0324,0.0345,0.0345,0.034,0.034,0.034,0,0,-0.0203,-0.0189,-0.0187,-0.0155,-0.0132,-0.0108,-0.0093,-0.007,-0.0044,0.0003,0.0057,0.011,0.0179,0.0246,0.0277,0.0275,0.0348,0.0343,0.0343,0.0329,0.0349,0.0348,0.0348,0.0343,0.0342,0.0342,0,0,-0.0217,-0.0204,-0.0206,-0.0179,-0.0147,-0.0118,-0.0116,-0.0066,-0.0041,0.0021,0.0062,0.0121,0.0215,0.0265,0.0302,0.0351,0.0356,0.0376,0.0356,0.0376,0.0375,0.0374,0.0387,0.0388,0.0377,0.0376,0.0376,0,-0.0228,-0.0229,-0.0199,-0.0186,-0.0176,-0.0127,-0.0122,-0.0075,-0.0007,0.001,0.0036,0.0163,0.0225,0.0289,0.0314,0.0352,0.0355,0.0334,0.0373,0.0372,0.0372,0.0386,0.0387,0.0375,0.0375,0.0375,0.0375,0,-0.0241,-0.0236,-0.0234,-0.0206,-0.0181,-0.0171,-0.0111,-0.0078,-0.0041,0.0006,0.0076,0.0165,0.0229,0.0273,0.0312,0.0351,0.0351,0.0366,0.0352,0.0369,0.0384,0.0386,0.0373,0.0373,0.0374,0.0374,0,0,-0.0288,-0.0256,-0.0256,-0.0262,-0.0201,-0.0192,-0.0141,-0.0099,-0.009,0.0008,0.0022,0.0155,0.0186,0.023,0.0288,0.0321,0.0341,0.0338,0.034,0.0324,0.0369,0.0428,0.0435,0.0349,0.0349,0.035,0.038,0,-0.0317,-0.0329,-0.0289,-0.029,-0.0297,-0.0237,-0.0203,-0.0149,-0.0092,-0.0053,0.0043,0.0095,0.0176,0.0195,0.0246,0.031,0.0343,0.0331,0.0379,0.0381,0.0407,0.0439,0.0472,0.0507,0.0381,0.0382,0.0382,0,-0.0348,-0.0359,-0.0378,-0.037,-0.0367,-0.0345,-0.0323,-0.0281,-0.0196,-0.0156,-0.0081,-0.0009,0.0074,0.0128,0.0244,0.0225,0.0292,0.0348,0.035,0.0415,0.0443,0.0473,0.0515,0.0661,0.0385,0.0385,0.0384,0,-0.0433,-0.0424,-0.0459,-0.045,-0.0415,-0.0416,-0.0393,-0.032,-0.0304,-0.0228,-0.0213,-0.01,-0.0055,0.0046,0.0202,0.0203,0.0316,0.033,0.0447,0.0451,0.0496,0.0505,0.0661,0.0398,0.0398,0.0398,0.0398,0,-0.0494,-0.0517,-0.0506,-0.0523,-0.0565,-0.0504,-0.0522,-0.0478,-0.0423,-0.0409,-0.0281,-0.0246,-0.0077,0.0028,0.0157,0.032,0.0286,0.0444,0.0467,0.0488,0.0495,0.0638,0.0695,0.0399,0.0399,0.0398,0.0398,0,-0.0573,-0.0561,-0.0604,-0.0602,-0.0604,-0.0634,-0.0614,-0.0619,-0.0553,-0.0537,-0.052,-0.0372,-0.022,-0.0033,0.0136,0.0261,0.0503,0.0472,0.049,0.0515,0.0756,0.0809,0.097,0.1057,0.0583,0.0585,0.0587,0,-0.0613,-0.0645,-0.0682,-0.0713,-0.0713,-0.074,-0.0752,-0.0696,-0.0691,-0.0602,-0.0602,-0.045,-0.0312,-0.0022,0.0224,0.0459,0.0582,0.0612,0.0638,0.0783,0.0858,0.0898,0.0962,0.0679,0.0681,0.0683,0.0684,0,-0.069,-0.0703,-0.0741,-0.0815,-0.0846,-0.0883,-0.089,-0.0908,-0.0835,-0.0795,-0.0703,-0.0587,-0.0269,0.0036,0.0361,0.0509,0.0731,0.0654,0.0799,0.0947,0.1004,0.1094,0.0639,0.0699,0.0697,0.0696,0.0695,0.0695,-0.0737,-0.0793,-0.0842,-0.0907,-0.0953,-0.1,-0.1029,-0.1013,-0.0998,-0.0905,-0.0781,-0.0565,-0.012,0.0363,0.0532,0.0906,0.0877,0.1013,0.1062,0.1088,0.1195,0.0778,0.0872,0.0872,0.0871,0.0871,0.0871,0,-0.0789,-0.0847,-0.0924,-0.0997,-0.1063,-0.1062,-0.1097,-0.1098,-0.1075,-0.0928,-0.0788,-0.029,0.0156,0.0569,0.1093,0.1297,0.1344,0.1399,0.1463,0.1507,0.1134,0.1164,0.1332,0.1332,0.1332,0.1332,0.1332,0.1332,-0.0814,-0.09,-0.0945,-0.1064,-0.1117,-0.1179,-0.1198,-0.1177,-0.1077,-0.0822,-0.0532,-0.0291,0.0315,0.1149,0.163,0.1678,0.1853,0.1842,0.1935,0.1678,0.1645,0.1614,0.1659,0.1928,0.1929,0.2298,0.2301,0.2304]}],[{"header":{"parameterUnit":"m.s-1","parameterCategory":2,"la1":30.2991,"la2":30.254,"lo1":-89.0895,"lo2":-89.0444,"dy":0.0017,"dx":0.0017,"nx":28,"ny":28,"refTime":"2026-02-12T03:00:00:Z","depth":"2","parameterNumber":2,"parameterNumberName":"U-component_of_CURRENTS"},"data":[0,0,0,0,0,0,0,0,0,0,0,0,0,0,0,0,0,0,0,0,0,0,0,0,0,0,0,0,0,0,0,0,0,0,0,0,0,0,0,0,0,0,0,0,0,0,0,0,0,0,0,0,0,0,0,0,0,0,-0.1913,-0.1913,0,-0.1944,-0.1944,-0.1944,-0.1927,-0.1926,-0.1925,-0.1924,-0.1911,-0.1911,-0.1911,0,0,0,0,0,0,0,0,0,0,0,0,0,-0.1869,-0.187,-0.1912,-0.1913,-0.1914,-0.1944,-0.1944,-0.1944,-0.1927,-0.1926,-0.1925,-0.1924,-0.191,-0.1911,-0.1911,0,0,0,0,0,0,0,0,0,0,0,0,0,-0.1892,-0.187,-0.1912,-0.1909,-0.1909,-0.1944,-0.1944,-0.1944,-0.1927,-0.1926,-0.1925,-0.1924,-0.191,-0.1911,-0.1911,-0.1937,0,0,-0.1913,-0.1913,0,0,0,0,0,0,0,0,-0.189,-0.1893,-0.1909,-0.191,-0.191,-0.1931,-0.1924,-0.194,-0.1927,-0.1919,-0.1924,-0.1923,-0.1915,-0.1915,-0.1922,-0.1936,-0.1935,-0.1913,-0.1913,-0.1913,-0.1913,0,0,0,0,0,0,0,-0.1889,-0.1892,-0.1923,-0.191,-0.191,-0.1917,-0.1919,-0.1927,-0.1921,-0.192,-0.1919,-0.1925,-0.1914,-0.1922,-0.1922,-0.1935,-0.1913,-0.1913,-0.1914,-0.1914,-0.1975,-0.1976,0,0,0,0,0,0,-0.1887,-0.189,-0.1923,-0.1925,-0.1899,-0.1919,-0.1921,-0.1924,-0.1922,-0.1921,-0.1926,-0.1924,-0.1921,-0.1921,-0.1921,-0.1973,-0.1913,-0.1914,-0.1914,-0.1974,-0.1975,-0.1977,0,0,0,0,0,0,-0.1886,-0.189,-0.1921,-0.1909,-0.1914,-0.1921,-0.1925,-0.1926,-0.193,-0.1927,-0.1925,-0.1929,-0.1921,-0.192,-0.1933,-0.1971,-0.1914,-0.1914,-0.1972,-0.1974,-0.1976,-0.2062,0,0,0,0,0,0,-0.1885,-0.1889,-0.189,-0.1909,-0.1914,-0.1947,-0.1927,-0.1927,-0.1936,-0.1934,-0.193,-0.1928,-0.192,-0.1932,-0.1933,-0.1971,-0.1915,-0.197,-0.1973,-0.1975,-0.2057,-0.2067,-0.2074,0,0,0,0,0,-0.1883,-0.1895,-0.189,-0.1894,-0.1916,-0.1948,-0.1952,-0.1952,-0.1938,-0.1949,-0.1944,-0.1928,-0.1949,-0.1934,-0.1935,-0.1973,-0.1969,-0.1972,-0.1975,-0.2054,-0.2065,-0.2074,0,0,0,0,0,0,-0.1875,-0.1895,-0.189,-0.1905,-0.1926,-0.1946,-0.1957,-0.1956,-0.1963,-0.1956,-0.1944,-0.1943,-0.1972,-0.1956,-0.194,-0.1997,-0.1957,-0.196,-0.2016,-0.2027,-0.2035,-0.2018,-0.1915,0,0,0,0,0,-0.1875,-0.1884,-0.1908,-0.1918,-0.1931,-0.1943,-0.1954,-0.1958,-0.1968,-0.1969,-0.1968,-0.1968,-0.1988,-0.1992,-0.2001,-0.2029,-0.2001,-0.2054,-0.2062,-0.207,-0.2056,-0.2049,-0.2055,-0.1987,-0.1987,-0.1987,0,0,-0.1872,-0.1884,-0.1888,-0.1916,-0.1929,-0.196,-0.1946,-0.197,-0.1994,-0.1968,-0.1993,-0.2,-0.2002,-0.2039,-0.205,-0.2028,-0.2079,-0.2073,-0.208,-0.2061,-0.2052,-0.2059,-0.2065,-0.1989,-0.1988,-0.1988,0,0,-0.1877,-0.1886,-0.1898,-0.1923,-0.1951,-0.1971,-0.1979,-0.2005,-0.2015,-0.2045,-0.2039,-0.2058,-0.208,-0.2093,-0.2102,-0.2159,-0.2127,-0.2172,-0.22,-0.2195,-0.22,-0.2204,-0.2196,-0.2199,-0.2173,-0.2173,-0.2174,0,-0.1872,-0.1892,-0.1908,-0.1934,-0.1958,-0.1977,-0.2007,-0.2031,-0.2056,-0.2069,-0.2059,-0.21,-0.2105,-0.215,-0.2176,-0.2179,-0.2166,-0.2165,-0.2206,-0.2209,-0.2212,-0.2202,-0.2204,-0.2178,-0.2177,-0.2177,-0.2177,0,-0.1889,-0.1911,-0.1926,-0.1963,-0.1994,-0.2026,-0.2067,-0.2097,-0.2111,-0.2126,-0.2167,-0.2177,-0.2191,-0.2217,-0.2217,-0.2254,-0.2237,-0.2221,-0.2179,-0.2224,-0.2211,-0.2211,-0.2184,-0.2183,-0.2181,-0.218,0,0,-0.1861,-0.1924,-0.1928,-0.1948,-0.2015,-0.2038,-0.2099,-0.2151,-0.2175,-0.2204,-0.223,-0.2279,-0.2269,-0.2276,-0.2285,-0.2289,-0.2316,-0.2268,-0.2266,-0.2259,-0.2304,-0.2235,-0.2228,-0.231,-0.231,-0.231,-0.2294,0,-0.1868,-0.1912,-0.1952,-0.2001,-0.2031,-0.2086,-0.2138,-0.2186,-0.2221,-0.2251,-0.2272,-0.2296,-0.2298,-0.2307,-0.2316,-0.2315,-0.2317,-0.2321,-0.2261,-0.2259,-0.2191,-0.2226,-0.2044,-0.2009,-0.2294,-0.2294,-0.2294,0,-0.1866,-0.19,-0.1949,-0.2017,-0.2036,-0.2077,-0.2154,-0.22,-0.2262,-0.2286,-0.2314,-0.2319,-0.2349,-0.233,-0.2337,-0.2341,-0.2324,-0.2317,-0.2315,-0.2213,-0.219,-0.2006,-0.1998,-0.2293,-0.2293,-0.2293,-0.2293,0,-0.1823,-0.1893,-0.193,-0.1955,-0.2043,-0.2081,-0.213,-0.2205,-0.224,-0.2296,-0.2314,-0.2343,-0.235,-0.2343,-0.2334,-0.2336,-0.2323,-0.2319,-0.224,-0.2235,-0.2045,-0.2022,-0.2305,-0.2305,-0.2305,-0.2305,-0.2305,0,-0.1813,-0.1838,-0.191,-0.1932,-0.1977,-0.2048,-0.2101,-0.2158,-0.2227,-0.2256,-0.2312,-0.2328,-0.2351,-0.235,-0.2337,-0.2287,-0.2322,-0.224,-0.2224,-0.2072,-0.2054,-0.2264,-0.2259,-0.2305,-0.2305,-0.2305,-0.2305,0,-0.1759,-0.1811,-0.1847,-0.1932,-0.1957,-0.1984,-0.2076,-0.2104,-0.2188,-0.2227,-0.2242,-0.2313,-0.2315,-0.2325,-0.2314,-0.2276,-0.2244,-0.2214,-0.2037,-0.2,-0.216,-0.2161,-0.2123,-0.2121,-0.2119,-0.2117,-0.2115,0,-0.1735,-0.1749,-0.1821,-0.1835,-0.1874,-0.1929,-0.1965,-0.2068,-0.2099,-0.2205,-0.2208,-0.2249,-0.2245,-0.2218,-0.2162,-0.2113,-0.2186,-0.1917,-0.1882,-0.2152,-0.2141,-0.2144,-0.2148,-0.1674,-0.1669,-0.1665,-0.1661,0,-0.168,-0.1703,-0.1729,-0.1758,-0.1791,-0.183,-0.189,-0.1914,-0.2026,-0.2062,-0.2103,-0.2114,-0.2109,-0.1976,-0.1926,-0.1876,-0.1912,-0.1831,-0.2143,-0.1753,-0.1727,-0.1717,-0.1735,-0.1624,-0.1628,-0.1631,-0.1633,-0.1634,-0.1617,-0.1614,-0.1638,-0.1655,-0.1688,-0.1706,-0.17,-0.1764,-0.1792,-0.1816,-0.1917,-0.1869,-0.1868,-0.1694,-0.1618,-0.1559,-0.1695,-0.1605,-0.1618,-0.1635,-0.1591,-0.1563,-0.1421,-0.1423,-0.1425,-0.1427,-0.1429,0,-0.152,-0.1522,-0.1531,-0.1541,-0.1525,-0.1587,-0.1618,-0.1585,-0.1564,-0.1606,-0.1609,-0.1449,-0.1362,-0.1377,-0.1225,-0.1203,-0.1193,-0.1151,-0.1129,-0.1165,-0.1198,-0.1132,-0.084,-0.0839,-0.0837,-0.0836,0,0,-0.1464,-0.1428,-0.143,-0.1364,-0.1372,-0.1313,-0.1302,-0.1271,-0.1266,-0.1204,-0.1169,-0.1262,-0.1311,-0.1063,-0.1015,-0.0902,-0.1023,-0.0854,-0.1322,-0.133,-0.136,-0.1451,-0.139,0,0,0,0,0]},{"header":{"parameterUnit":"m.s-1","parameterCategory":2,"la1":30.2991,"la2":30.254,"lo1":-89.0895,"lo2":-89.0444,"dy":0.0017,"dx":0.0017,"nx":28,"ny":28,"refTime":"2026-02-12T03:00:00:Z","depth":"2","parameterNumber":3,"parameterNumberName":"V-component_of_CURRENTS"},"data":[0,0,0,0,0,0,0,0,0,0,0,0,0,0,0,0,0,0,0,0,0,0,0,0,0,0,0,0,0,0,0,0,0,0,0,0,0,0,0,0,0,0,0,0,0,0,0,0,0,0,0,0,0,0,0,0,0,0,-0.0147,-0.0147,0,-0.0105,-0.0105,-0.0104,-0.0067,-0.0067,-0.0066,-0.0066,0.0025,0.0027,0.0029,0,0,0,0,0,0,0,0,0,0,0,0,0,-0.0172,-0.0172,-0.0147,-0.0147,-0.0146,-0.0105,-0.0105,-0.0104,-0.0067,-0.0067,-0.0066,-0.0066,0.0024,0.0027,0.0029,0,0,0,0,0,0,0,0,0,0,0,0,0,-0.0148,-0.0172,-0.0147,-0.0124,-0.0121,-0.0105,-0.0105,-0.0104,-0.0067,-0.0067,-0.0066,-0.0066,0.0023,0.0026,0.003,0.0039,0,0,0.0039,0.0041,0,0,0,0,0,0,0,0,-0.0149,-0.0147,-0.0128,-0.0125,-0.0123,-0.0092,-0.008,-0.0054,-0.0067,-0.0087,-0.0066,-0.0066,-0.0011,-0.0005,0.0003,0.0043,0.0047,0.0039,0.0041,0.0043,0.0044,0,0,0,0,0,0,0,-0.0151,-0.0148,-0.0129,-0.0127,-0.0124,-0.0108,-0.0104,-0.0075,-0.005,-0.0085,-0.0082,-0.008,-0.0009,-0.0,0.0005,0.0049,0.0039,0.0042,0.0044,0.0045,0.0115,0.0115,0,0,0,0,0,0,-0.016,-0.015,-0.0131,-0.0128,-0.0136,-0.0108,-0.0103,-0.0101,-0.0051,-0.0044,-0.008,-0.0078,-0.0006,0.0002,0.0009,0.0033,0.0043,0.0046,0.0048,0.0115,0.0115,0.0115,0,0,0,0,0,0,-0.0161,-0.0159,-0.0132,-0.0139,-0.0135,-0.0108,-0.0106,-0.0101,-0.0092,-0.0049,-0.004,-0.0077,-0.0005,0.0004,0.0031,0.0036,0.0047,0.005,0.0115,0.0115,0.0115,0.0075,0,0,0,0,0,0,-0.0162,-0.016,-0.0162,-0.014,-0.0135,-0.0133,-0.0106,-0.01,-0.0092,-0.0089,-0.0043,-0.0034,-0.0004,0.0026,0.0034,0.0041,0.0052,0.0115,0.0115,0.0115,0.0076,0.0073,0.0071,0,0,0,0,0,-0.0163,-0.0172,-0.0162,-0.016,-0.0139,-0.0134,-0.013,-0.0108,-0.0092,-0.0097,-0.0061,-0.0036,0.0032,0.0028,0.0038,0.0046,0.0115,0.0115,0.0115,0.0077,0.0074,0.0071,0,0,0,0,0,0,-0.0183,-0.0169,-0.0157,-0.0161,-0.0152,-0.0128,-0.0129,-0.0113,-0.0089,-0.0082,-0.0038,-0.0027,-0.0,0.0025,0.002,0.0065,0.0078,0.008,0.0046,0.0044,0.0041,0.0024,0.0055,0,0,0,0,0,-0.019,-0.0193,-0.0176,-0.0179,-0.0176,-0.0152,-0.0147,-0.0133,-0.011,-0.0099,-0.0066,-0.0028,0.0006,0.0025,0.0056,0.0078,0.0106,0.0089,0.0087,0.0084,0.0076,0.0124,0.0125,0.0114,0.0114,0.0114,0,0,-0.0197,-0.0191,-0.0191,-0.0184,-0.0172,-0.018,-0.0148,-0.0145,-0.0145,-0.0092,-0.0079,-0.0038,0.0009,0.0036,0.005,0.0058,0.0102,0.0084,0.0082,0.0075,0.0124,0.0126,0.0127,0.0114,0.0114,0.0114,0,0,-0.0226,-0.021,-0.0227,-0.0224,-0.0215,-0.02,-0.0202,-0.0181,-0.0165,-0.0149,-0.0105,-0.0067,-0.0022,0.0016,0.0042,0.0041,0.0085,0.0056,0.0032,0.0078,0.008,0.0081,0.0117,0.0122,0.0056,0.0056,0.0056,0,-0.0236,-0.0255,-0.0231,-0.025,-0.0252,-0.0214,-0.0235,-0.0214,-0.0185,-0.0168,-0.0153,-0.0071,-0.0032,0.0013,0.0015,0.0036,0.0066,0.004,0.0075,0.0077,0.0079,0.0115,0.0121,0.0054,0.0054,0.0054,0.0054,0,-0.0281,-0.0295,-0.0305,-0.0314,-0.0312,-0.0323,-0.0295,-0.028,-0.0251,-0.0223,-0.0175,-0.0117,-0.0068,-0.0044,-0.0013,0.0027,0.0045,0.0065,0.0081,0.0078,0.0116,0.0123,0.0051,0.0052,0.0052,0.0053,0,0,-0.0306,-0.0333,-0.0337,-0.0356,-0.0348,-0.0353,-0.0343,-0.0323,-0.0309,-0.0263,-0.024,-0.0169,-0.0126,-0.0095,-0.0042,0.0002,0.0047,0.0036,0.004,0.0068,0.0147,0.017,0.0181,0.0078,0.0079,0.008,0.0166,0,-0.0349,-0.0407,-0.04,-0.0442,-0.0468,-0.0429,-0.0424,-0.0394,-0.0352,-0.0317,-0.0239,-0.0197,-0.0147,-0.0117,-0.0066,0.0021,0.0064,0.0021,0.0149,0.0152,0.0171,0.0189,0.0158,0.0234,0.0174,0.0175,0.0176,0,-0.0396,-0.0431,-0.0489,-0.0511,-0.0516,-0.0525,-0.0501,-0.0491,-0.0423,-0.0387,-0.0323,-0.0259,-0.018,-0.0143,-0.0002,-0.0029,0.0049,0.0114,0.012,0.0159,0.0189,0.0229,0.0249,0.0188,0.0187,0.0186,0.0185,0,-0.044,-0.0488,-0.0538,-0.0549,-0.0565,-0.0568,-0.0561,-0.051,-0.0497,-0.0427,-0.0403,-0.0299,-0.0244,-0.0133,0.0007,0.0006,0.0158,0.0175,0.0268,0.027,0.0277,0.0278,0.0264,0.0264,0.0264,0.0264,0.0264,0,-0.0492,-0.053,-0.0563,-0.0594,-0.0633,-0.0618,-0.0631,-0.06,-0.0557,-0.0541,-0.0442,-0.0403,-0.0237,-0.0126,-0.0007,0.0155,0.0152,0.0266,0.0298,0.0262,0.026,0.0244,0.0241,0.0267,0.0266,0.0266,0.0265,0,-0.0535,-0.0559,-0.062,-0.0653,-0.0661,-0.0686,-0.069,-0.0693,-0.064,-0.0616,-0.0596,-0.0471,-0.0319,-0.0153,0.0036,0.0139,0.0287,0.0341,0.0283,0.0307,0.0368,0.0361,0.0453,0.0454,0.0456,0.0457,0.0458,0,-0.0565,-0.0605,-0.0668,-0.0703,-0.0721,-0.0752,-0.0769,-0.0738,-0.0737,-0.0656,-0.0648,-0.05,-0.0388,-0.0103,0.0105,0.0323,0.0327,0.0413,0.0408,0.0367,0.0389,0.0381,0.0372,0.04,0.04,0.0401,0.0401,0,-0.0619,-0.0639,-0.0687,-0.0765,-0.0803,-0.0846,-0.0864,-0.0877,-0.083,-0.0792,-0.0714,-0.0616,-0.0337,-0.01,0.0186,0.0309,0.0378,0.0428,0.0415,0.0354,0.0324,0.0344,0.0336,0.0404,0.0404,0.0404,0.0403,0.0403,-0.0645,-0.0691,-0.0754,-0.0821,-0.0872,-0.0924,-0.0951,-0.0953,-0.0944,-0.0867,-0.0773,-0.0599,-0.0367,0.0041,0.0243,0.0438,0.0434,0.0482,0.0478,0.0475,0.045,0.0424,0.0518,0.0518,0.0518,0.0519,0.0519,0,-0.0677,-0.0731,-0.0804,-0.0885,-0.0949,-0.096,-0.1001,-0.1002,-0.0989,-0.088,-0.0776,-0.0509,-0.0236,0.0019,0.0326,0.0501,0.0489,0.0532,0.0476,0.0472,0.0468,0.0441,0.0508,0.0509,0.0509,0.051,0,0,-0.0697,-0.0771,-0.0814,-0.0926,-0.0983,-0.1044,-0.1066,-0.1045,-0.0971,-0.0859,-0.0718,-0.0533,-0.0227,-0.0015,0.0206,0.0369,0.0378,0.0388,0.0376,0.028,0.0275,0.0419,0.037,0,0,0,0,0]}],[{"header":{"parameterUnit":"m.s-1","parameterCategory":2,"la1":30.2991,"la2":30.254,"lo1":-89.0895,"lo2":-89.0444,"dy":0.0017,"dx":0.0017,"nx":28,"ny":28,"refTime":"2026-02-12T03:00:00:Z","depth":"4","parameterNumber":2,"parameterNumberName":"U-component_of_CURRENTS"},"data":[0,0,0,0,0,0,0,0,0,0,0,0,0,0,0,0,0,0,0,0,0,0,0,0,0,0,0,0,0,0,0,0,0,0,0,0,0,0,0,0,0,0,0,0,0,0,0,0,0,0,0,0,0,0,0,0,0,0,-0.1313,-0.1314,0,-0.1363,-0.1363,-0.1364,-0.1395,-0.1396,-0.1396,-0.1396,-0.144,-0.1441,-0.1442,0,0,0,0,0,0,0,0,0,0,0,0,0,-0.1261,-0.1262,-0.1313,-0.1314,-0.1315,-0.1363,-0.1363,-0.1364,-0.1395,-0.1396,-0.1396,-0.1396,-0.144,-0.1441,-0.1442,0,0,0,0,0,0,0,0,0,0,0,0,0,-0.1294,-0.1262,-0.1313,-0.1337,-0.1339,-0.1363,-0.1363,-0.1364,-0.1395,-0.1396,-0.1396,-0.1396,-0.1439,-0.1441,-0.1442,-0.1442,0,0,-0.1446,-0.1447,0,0,0,0,0,0,0,0,-0.1292,-0.1295,-0.1333,-0.1335,-0.1338,-0.1374,-0.1361,-0.139,-0.1395,-0.1373,-0.1396,-0.1397,-0.1418,-0.1421,-0.1428,-0.1444,-0.1446,-0.1446,-0.1447,-0.1448,-0.1448,0,0,0,0,0,0,0,-0.1289,-0.1293,-0.1332,-0.1333,-0.1337,-0.1351,-0.1355,-0.1367,-0.1391,-0.1375,-0.1378,-0.1385,-0.1419,-0.1427,-0.1429,-0.1447,-0.1446,-0.1447,-0.1448,-0.1449,-0.1517,-0.1518,0,0,0,0,0,0,-0.1284,-0.1291,-0.133,-0.1333,-0.1317,-0.1351,-0.1357,-0.1361,-0.1392,-0.1397,-0.1384,-0.1386,-0.1424,-0.1428,-0.1431,-0.1481,-0.1448,-0.1449,-0.145,-0.1516,-0.1517,-0.1518,0,0,0,0,0,0,-0.1283,-0.1287,-0.1328,-0.1314,-0.1321,-0.1352,-0.1357,-0.1362,-0.1391,-0.1399,-0.1404,-0.141,-0.1425,-0.1429,-0.1463,-0.1481,-0.145,-0.1451,-0.1515,-0.1516,-0.1518,-0.155,0,0,0,0,0,0,-0.1281,-0.1286,-0.1299,-0.1314,-0.1321,-0.1355,-0.1357,-0.1363,-0.1394,-0.1397,-0.1422,-0.1425,-0.1425,-0.1461,-0.1464,-0.1482,-0.1452,-0.1513,-0.1515,-0.1517,-0.1547,-0.1552,-0.1556,0,0,0,0,0,-0.1279,-0.1292,-0.1299,-0.1304,-0.1334,-0.1356,-0.1361,-0.1383,-0.1395,-0.141,-0.1431,-0.1426,-0.1475,-0.1463,-0.1467,-0.1485,-0.1513,-0.1515,-0.1517,-0.1545,-0.1551,-0.1556,0,0,0,0,0,0,-0.1278,-0.1297,-0.1305,-0.1324,-0.1344,-0.1362,-0.1383,-0.1396,-0.1424,-0.1435,-0.1441,-0.1446,-0.148,-0.1481,-0.1468,-0.1511,-0.1492,-0.1495,-0.1512,-0.1518,-0.1522,-0.1529,-0.1453,0,0,0,0,0,-0.1282,-0.1298,-0.1316,-0.1333,-0.1346,-0.1368,-0.1384,-0.1399,-0.1422,-0.1436,-0.1454,-0.1473,-0.1488,-0.1503,-0.1515,-0.1542,-0.1546,-0.1556,-0.156,-0.1564,-0.1572,-0.1604,-0.1612,-0.1526,-0.1526,-0.1525,0,0,-0.1289,-0.13,-0.1311,-0.1335,-0.1354,-0.137,-0.1379,-0.141,-0.1429,-0.1435,-0.1476,-0.149,-0.1499,-0.1528,-0.1543,-0.1534,-0.1588,-0.1567,-0.157,-0.1576,-0.1607,-0.1615,-0.1623,-0.1527,-0.1527,-0.1527,0,0,-0.1293,-0.1318,-0.1327,-0.1345,-0.1375,-0.139,-0.1403,-0.1433,-0.1456,-0.1491,-0.15,-0.1532,-0.1556,-0.157,-0.1577,-0.1615,-0.1609,-0.1617,-0.1647,-0.1677,-0.1685,-0.1691,-0.1695,-0.1702,-0.162,-0.162,-0.162,0,-0.1301,-0.1311,-0.1335,-0.1345,-0.1366,-0.1399,-0.1415,-0.144,-0.148,-0.1505,-0.1509,-0.1568,-0.1575,-0.1613,-0.1625,-0.1625,-0.1634,-0.1624,-0.1683,-0.169,-0.1696,-0.1698,-0.1705,-0.1622,-0.1622,-0.1622,-0.1621,0,-0.13,-0.1319,-0.133,-0.1352,-0.1379,-0.1404,-0.1438,-0.1472,-0.1506,-0.1533,-0.1591,-0.1612,-0.1648,-0.1653,-0.165,-0.1699,-0.1687,-0.1683,-0.1669,-0.1707,-0.1707,-0.1713,-0.1625,-0.1624,-0.1623,-0.1623,0,0,-0.1285,-0.1321,-0.1327,-0.1344,-0.1389,-0.1411,-0.1452,-0.1499,-0.1543,-0.1584,-0.164,-0.167,-0.1698,-0.1709,-0.1718,-0.1745,-0.1787,-0.1737,-0.1737,-0.1738,-0.1842,-0.1701,-0.1694,-0.1799,-0.18,-0.1802,-0.182,0,-0.1279,-0.1296,-0.1323,-0.1358,-0.1373,-0.1424,-0.1465,-0.1517,-0.1569,-0.1632,-0.1672,-0.1726,-0.1714,-0.1746,-0.1771,-0.1789,-0.1809,-0.1782,-0.1808,-0.1808,-0.1676,-0.1699,-0.1807,-0.1825,-0.1826,-0.1827,-0.1828,0,-0.126,-0.1279,-0.1306,-0.1367,-0.1384,-0.1416,-0.1503,-0.1544,-0.1631,-0.1676,-0.1738,-0.1777,-0.1829,-0.1817,-0.1864,-0.1849,-0.185,-0.1856,-0.1857,-0.172,-0.1679,-0.1783,-0.184,-0.1839,-0.1838,-0.1838,-0.1837,0,-0.1224,-0.127,-0.1296,-0.1314,-0.1384,-0.1423,-0.1472,-0.156,-0.1613,-0.1713,-0.1764,-0.1831,-0.1873,-0.1897,-0.1901,-0.1896,-0.1942,-0.1934,-0.1805,-0.1795,-0.1904,-0.1897,-0.1969,-0.1969,-0.1969,-0.1969,-0.1969,0,-0.1193,-0.1219,-0.1285,-0.1298,-0.1352,-0.1414,-0.149,-0.1548,-0.1648,-0.1706,-0.1789,-0.1832,-0.19,-0.1929,-0.1926,-0.1871,-0.1959,-0.181,-0.1793,-0.1914,-0.1908,-0.1908,-0.19,-0.197,-0.1969,-0.1969,-0.1969,0,-0.1141,-0.1183,-0.1219,-0.13,-0.1331,-0.1372,-0.1487,-0.154,-0.164,-0.1717,-0.1752,-0.1848,-0.187,-0.1909,-0.1944,-0.1881,-0.1861,-0.1822,-0.1938,-0.1927,-0.169,-0.1684,-0.1682,-0.1677,-0.1673,-0.167,-0.1667,0,-0.1112,-0.1122,-0.1208,-0.1236,-0.1276,-0.1351,-0.1402,-0.1517,-0.1565,-0.17,-0.1719,-0.1794,-0.1834,-0.1762,-0.1814,-0.179,-0.1768,-0.1746,-0.1724,-0.1678,-0.1663,-0.1663,-0.1663,-0.166,-0.1659,-0.1658,-0.1657,0,-0.1054,-0.1094,-0.1126,-0.1176,-0.1231,-0.1291,-0.1366,-0.1391,-0.1512,-0.1626,-0.1636,-0.1648,-0.1665,-0.1668,-0.1657,-0.1643,-0.1756,-0.1704,-0.1712,-0.1691,-0.1652,-0.1641,-0.1645,-0.1643,-0.1645,-0.1647,-0.1647,0,-0.1015,-0.1022,-0.1062,-0.1099,-0.1165,-0.1189,-0.1251,-0.1293,-0.1351,-0.1492,-0.1487,-0.1559,-0.1641,-0.1591,-0.1583,-0.1552,-0.153,-0.148,-0.15,-0.1516,-0.1451,-0.1376,-0.1266,0,0,0,0,0,-0.0962,-0.0953,-0.0981,-0.1008,-0.1072,-0.1104,-0.1204,-0.1268,-0.1383,-0.1348,-0.1412,-0.1417,-0.1406,-0.1444,-0.1376,-0.1508,-0.1537,-0.1422,-0.149,-0.1565,-0.1581,-0.1519,0,0,0,0,0,0,-0.0923,-0.094,-0.094,-0.0917,-0.0922,-0.0977,-0.1032,-0.1119,-0.1103,-0.1226,-0.1223,-0.1318,-0.1325,-0.1414,-0.1341,-0.1352,-0.1362,-0.1473,-0.1468,-0.1556,-0.1571,-0.1584,-0.1525,0,0,0,0,0]},{"header":{"parameterUnit":"m.s-1","parameterCategory":2,"la1":30.2991,"la2":30.254,"lo1":-89.0895,"lo2":-89.0444,"dy":0.0017,"dx":0.0017,"nx":28,"ny":28,"refTime":"2026-02-12T03:00:00:Z","depth":"4","parameterNumber":3,"parameterNumberName":"V-component_of_CURRENTS"},"data":[0,0,0,0,0,0,0,0,0,0,0,0,0,0,0,0,0,0,0,0,0,0,0,0,0,0,0,0,0,0,0,0,0,0,0,0,0,0,0,0,0,0,0,0,0,0,0,0,0,0,0,0,0,0,0,0,0,0,-0.0146,-0.0146,0,-0.0127,-0.0127,-0.0127,-0.0099,-0.0099,-0.0098,-0.0098,-0.0036,-0.0035,-0.0033,0,0,0,0,0,0,0,0,0,0,0,0,0,-0.015,-0.015,-0.0146,-0.0146,-0.0146,-0.0127,-0.0127,-0.0127,-0.0099,-0.0099,-0.0098,-0.0098,-0.0036,-0.0035,-0.0033,0,0,0,0,0,0,0,0,0,0,0,0,0,-0.0141,-0.015,-0.0146,-0.013,-0.0129,-0.0128,-0.0127,-0.0127,-0.0099,-0.0099,-0.0098,-0.0098,-0.0037,-0.0035,-0.0033,-0.0034,0,0,-0.0027,-0.0026,0,0,0,0,0,0,0,0,-0.0141,-0.014,-0.0133,-0.0131,-0.013,-0.0116,-0.0106,-0.0094,-0.01,-0.011,-0.0098,-0.0097,-0.0059,-0.0056,-0.0053,-0.0031,-0.0028,-0.0027,-0.0026,-0.0025,-0.0025,0,0,0,0,0,0,0,-0.0142,-0.0141,-0.0138,-0.0133,-0.0131,-0.0121,-0.0119,-0.0103,-0.0087,-0.0109,-0.0107,-0.0106,-0.0058,-0.0055,-0.0051,-0.0027,-0.0027,-0.0025,-0.0024,-0.0024,-0.0007,-0.0007,0,0,0,0,0,0,-0.0147,-0.0142,-0.0139,-0.0137,-0.0135,-0.0122,-0.012,-0.012,-0.0088,-0.0083,-0.0107,-0.0105,-0.0059,-0.0054,-0.0049,-0.0059,-0.0025,-0.0023,-0.0022,-0.0006,-0.0007,-0.0008,0,0,0,0,0,0,-0.0147,-0.0147,-0.0139,-0.014,-0.0138,-0.0123,-0.0123,-0.012,-0.0117,-0.0087,-0.0081,-0.0106,-0.0058,-0.0052,-0.004,-0.0056,-0.0022,-0.0021,-0.0005,-0.0006,-0.0007,-0.0072,0,0,0,0,0,0,-0.0147,-0.0147,-0.0151,-0.014,-0.0138,-0.0148,-0.0124,-0.012,-0.0117,-0.0115,-0.0085,-0.0079,-0.0057,-0.0043,-0.0038,-0.0053,-0.0019,-0.0004,-0.0006,-0.0007,-0.0069,-0.0075,-0.008,0,0,0,0,0,-0.0147,-0.0158,-0.0151,-0.0151,-0.0144,-0.0149,-0.0148,-0.0134,-0.0118,-0.0126,-0.0102,-0.0079,-0.0048,-0.0042,-0.0036,-0.0051,-0.0004,-0.0005,-0.0007,-0.0066,-0.0074,-0.008,0,0,0,0,0,0,-0.0161,-0.0156,-0.0148,-0.0156,-0.0157,-0.0145,-0.0149,-0.0138,-0.0126,-0.012,-0.0087,-0.008,-0.0077,-0.0054,-0.0049,-0.0049,-0.0023,-0.0023,-0.007,-0.0077,-0.0082,-0.0078,-0.0018,0,0,0,0,0,-0.0167,-0.0173,-0.0167,-0.0174,-0.0175,-0.0162,-0.0162,-0.0154,-0.0141,-0.0135,-0.0115,-0.0092,-0.008,-0.007,-0.0056,-0.0054,-0.001,-0.006,-0.0065,-0.007,-0.0063,-0.0004,-0.0003,-0.0013,-0.0013,-0.0013,0,0,-0.0174,-0.0172,-0.0174,-0.0178,-0.0173,-0.019,-0.016,-0.0165,-0.0177,-0.013,-0.0136,-0.0112,-0.0084,-0.0086,-0.0082,-0.0068,-0.0049,-0.0072,-0.0077,-0.0067,-0.0006,-0.0004,-0.0003,-0.0014,-0.0014,-0.0013,0,0,-0.0198,-0.0189,-0.0207,-0.0213,-0.0214,-0.0209,-0.0213,-0.0206,-0.02,-0.0204,-0.0173,-0.0155,-0.0141,-0.0121,-0.011,-0.0136,-0.0082,-0.0136,-0.016,-0.0103,-0.0101,-0.0099,-0.0058,-0.0052,-0.0137,-0.0138,-0.0138,0,-0.0207,-0.0228,-0.0214,-0.0236,-0.0245,-0.0222,-0.0247,-0.0244,-0.0234,-0.0225,-0.0215,-0.0177,-0.0158,-0.0144,-0.0158,-0.0149,-0.0108,-0.0138,-0.0109,-0.0106,-0.0103,-0.0061,-0.0053,-0.0141,-0.0141,-0.014,-0.014,0,-0.0248,-0.0267,-0.0279,-0.0299,-0.0307,-0.0324,-0.0319,-0.0319,-0.0306,-0.0293,-0.0274,-0.0241,-0.0212,-0.0212,-0.0195,-0.0169,-0.0146,-0.0124,-0.0091,-0.0105,-0.0061,-0.0052,-0.0146,-0.0144,-0.0143,-0.0143,0,0,-0.0261,-0.03,-0.0305,-0.0327,-0.0341,-0.0352,-0.0368,-0.037,-0.0366,-0.0349,-0.0335,-0.0316,-0.0277,-0.0261,-0.023,-0.0186,-0.0142,-0.015,-0.0146,-0.0108,-0.0021,-0.0039,-0.003,-0.0109,-0.0107,-0.0106,-0.0005,0,-0.0298,-0.0356,-0.0362,-0.0412,-0.0439,-0.0427,-0.0442,-0.0436,-0.0416,-0.0397,-0.0349,-0.0326,-0.0302,-0.0282,-0.0237,-0.0161,-0.0117,-0.0172,-0.0013,-0.0008,-0.002,-0.002,-0.0101,0.0002,0.0005,0.0006,0.0007,0,-0.0335,-0.037,-0.043,-0.0465,-0.0473,-0.0497,-0.0498,-0.0508,-0.0472,-0.0451,-0.0408,-0.0361,-0.0304,-0.0277,-0.0149,-0.0182,-0.0109,-0.0048,-0.0042,-0.0026,-0.0008,0.0026,0.0025,0.0024,0.0023,0.0021,0.002,0,-0.0355,-0.0413,-0.0462,-0.0479,-0.0516,-0.0531,-0.054,-0.0522,-0.0521,-0.0474,-0.0455,-0.0375,-0.0329,-0.0225,-0.0116,-0.0121,0.0033,0.0046,0.0099,0.0098,0.0114,0.0111,0.0145,0.0145,0.0145,0.0144,0.0144,0,-0.0389,-0.0427,-0.0477,-0.0507,-0.0551,-0.0559,-0.0583,-0.0574,-0.0553,-0.0545,-0.0479,-0.0448,-0.0308,-0.0211,-0.0112,0.0017,0.0041,0.01,0.0127,0.008,0.0073,0.012,0.0116,0.0148,0.0147,0.0146,0.0146,0,-0.0404,-0.044,-0.0499,-0.0551,-0.0567,-0.0595,-0.0624,-0.0633,-0.0606,-0.059,-0.0574,-0.0484,-0.0357,-0.0223,-0.0048,0.0019,0.0147,0.0187,0.0117,0.0138,0.0172,0.0164,0.0261,0.0262,0.0262,0.0262,0.0262,0,-0.0418,-0.0453,-0.053,-0.0568,-0.0597,-0.0638,-0.0665,-0.0661,-0.0666,-0.0615,-0.0606,-0.0488,-0.0415,-0.0184,-0.0049,0.0146,0.0168,0.023,0.0208,0.017,0.0187,0.0178,0.0169,0.0263,0.0263,0.0263,0.0263,0,-0.0442,-0.0471,-0.0518,-0.0598,-0.0645,-0.0693,-0.0726,-0.0732,-0.0715,-0.0693,-0.0615,-0.0498,-0.0358,-0.0189,-0.0036,0.0099,0.0188,0.0233,0.0234,0.0214,0.0173,0.0187,0.0178,0.0264,0.0264,0.0264,0.0263,0,-0.0451,-0.0487,-0.0552,-0.0616,-0.0681,-0.0728,-0.0745,-0.0743,-0.0738,-0.0675,-0.0652,-0.0501,-0.0409,-0.0214,-0.0078,0.0057,0.0089,0.0126,0.0133,0.0133,0.0058,-0.0015,0.0048,0,0,0,0,0,-0.0456,-0.0499,-0.0566,-0.0639,-0.0704,-0.0739,-0.0777,-0.0783,-0.0766,-0.0714,-0.0678,-0.0548,-0.0338,-0.0252,-0.0116,-0.0081,0.0104,0.008,0.0148,0.0268,0.0267,0.0199,0,0,0,0,0,0,-0.0464,-0.0525,-0.0562,-0.0642,-0.0693,-0.0757,-0.0783,-0.0774,-0.074,-0.0704,-0.0592,-0.0524,-0.0321,-0.0408,-0.0115,-0.0075,-0.0017,0.0181,0.0184,0.0269,0.0268,0.0267,0.0196,0,0,0,0,0]}]]